Weather Service Report


899 
ASUS44 KEWX 311711
RWRTX 
SOUTH TEXAS REGIONAL WEATHER ROUNDUP
NATIONAL WEATHER SERVICE AUSTIN/SAN ANTONIO TX
1200 PM CDT FRI JUL 31 2015

NOTE: "FAIR" INDICATED FEW OR NO CLOUDS BELOW 12,000 FEET WITH NO
SIGNIFICANT WEATHER AND/OR OBSTRUCTIONS TO VISIBILITY.

* - THESE STATIONS ARE NOT NWS OR FAA STATIONS...AND ARE NOT SUBJECT
    TO NWS AND FAA QUALITY CONTROL.
 
TXZ171-172-183>190-311800-
TEXAS HILL COUNTRY AND EDWARDS PLATEAU
  
CITY           SKY/WX    TMP DP  RH WIND       PRES   REMARKS
JUNCTION       MOSUNNY   94  63  35 VRB3      30.11F HX  95           
*LLANO         SUNNY     97  63  32 N8        30.10F HX  98           
BURNET         MOSUNNY   97  64  33 NE8       30.10S HX  99           
*HORSESHOE BAY SUNNY     96  64  35 NW7       30.08S HX  97           
*KERRVILLE     MOSUNNY   92  68  46 W6        30.12S HX  96           
*FREDERICKSBRG SUNNY     93  61  34 CALM      30.11S HX  92           
*ROCKSPRINGS   MOSUNNY   91  63  38 CALM      30.17F HX  92           
*BOERNE STAGE  MOSUNNY   90  64  43 N5        30.10F HX  91           
*CASTROVILLE   SUNNY     95  62  33 E5        30.06F HX  96           
HONDO          MOSUNNY   95  67  39 NE6       30.07F HX  99           
*UVALDE        MOSUNNY   92  71  50 SW5       30.07F HX  98           
DEL RIO        SUNNY     94  64  37 CALM      30.06F HX  95           
LAUGHLIN AFB   SUNNY     93  67  41 SW2       30.06F HX  96           
CARRIZO SPRGS  SUNNY     91  68  46 E3        30.04S HX  95           
$$

TXZ173-191>194-202-209-217>225-228-311800-
CENTRAL AND SOUTH CENTRAL TEXAS
  
CITY           SKY/WX    TMP DP  RH WIND       PRES   REMARKS
GEORGETOWN     SUNNY     97  70  41 N12       30.05F HX 103           
AUSTIN/BERGSTM MOSUNNY   96  70  42 NE9       30.03F HX 102           
AUSTIN/MABRY   MOSUNNY   98  67  36 N8        30.05F HX 102           
*AUSTIN/EXEC   MOSUNNY   93  72  49 CALM      30.05S HX 100           
*LAGO VISTA    MOSUNNY   97  62  31 NE10      30.08F HX  98           
SAN MARCOS     SUNNY     90  70  51 CALM      30.06F HX  95           
NEW BRAUNFELS  MOSUNNY   97  69  40 NE6       30.04F HX 103           
RANDOLPH AFB   MOSUNNY   94  67  40 VRB7      30.05F HX  97           
PT SAN ANTONIO MOSUNNY   94  68  42 E6        30.04F HX  99           
SAN ANTONIO    PTSUNNY   93  69  45 CALM      30.06F HX  98           
STINSON FIELD  SUNNY     96  68  39 N5        30.02F HX 101           
*PLEASANTON    SUNNY     93  65  38 CALM      30.05S HX  95           
*LA GRANGE     MOSUNNY   94  75  53 E3        30.01S HX 105           
*GIDDINGS      MOSUNNY   93  70  46 E3        30.07S HX  98           
*GONZALES      MOSUNNY   92  71  49 N5        30.03S HX  98           
$$

TXZ163>164-176>182-195>201-210>213-226-227-235-311800-
SOUTHEAST TEXAS
  
CITY           SKY/WX    TMP DP  RH WIND       PRES   REMARKS
COLLEGE STN    MOSUNNY   93  73  52 MISG      30.04S HX 102           
*BRYAN         MOSUNNY   94  75  54 NE3       30.05F HX 105           
*CALDWELL      MOSUNNY   91  73  55 NE7       30.07S HX 100           
*CROCKETT      MOSUNNY   91  72  52 NE8       30.09S HX  98           
*BRENHAM       MOSUNNY   92  76  61 NE5       30.04S HX 104           
HUNTSVILLE     MOSUNNY   91  73  55 E6        30.05S HX  99           
CONROE         MOSUNNY   91  73  55 VRB5      30.04S HX  99           
HOUSTON BUSH   MOSUNNY   92  76  59 E7        30.02S HX 104           
HOUSTON HOBBY  MOSUNNY   93  75  55 NE9       30.00S HX 104           
*HOUSTON SW AP MOSUNNY   94  75  53 NE7       30.01S HX 106           
PEARLAND       PTSUNNY   94  75  54 NE7       30.02S HX 105           
HOUSTON HOOKS  MOSUNNY   91  75  59 NE7       30.02F HX 101           
ELLINGTON FLD  MOSUNNY   91  63  38 N6        30.02S HX  92           
SUGAR LAND     MOSUNNY   95  75  52 NE7       30.00F HX 107           
*HOUSTON EXEC  MOSUNNY   91  77  62 NE9       30.02F HX 105           
*CLEVELAND MUN MOSUNNY   91  76  60 NE5       30.04S HX 102           
*WHARTON       SUNNY     91  72  53 NW7       30.02F HX  99           
*COLUMBUS      FAIR      93  74  54 NE3       30.02F HX 102           
*EAGLE LAKE    MOSUNNY   94  74  53 N5        30.01F HX 104           
$$

TXZ214>216-236>238-311800-
THE UPPER TEXAS COAST
  
CITY           SKY/WX    TMP DP  RH WIND       PRES   REMARKS
*ORANGE        SUNNY     90  68  47 N7        30.01F HX  94           
PORT ARTHUR    MOSUNNY   93  75  55 N8        29.99F HX 104           
GALVESTON      SUNNY     92  76  59 N10       30.02S HX 104           
ANGLETON       MOSUNNY   95  73  48 VRB3      30.00F HX 104           
*BAY CITY      SUNNY     94  69  43 N7        30.00F HX 100           
PALACIOS       SUNNY     95  70  44 N8        30.00F HX 101           
$$

TXZ229>234-239>247-311800-
TEXAS COASTAL BEND AND RIO GRANDE PLAINS
  
CITY           SKY/WX    TMP DP  RH WIND       PRES   REMARKS
VICTORIA       SUNNY     93  70  46 NE3       30.02F HX  99           
*BEEVILLE      SUNNY     92  74  54 E3        30.03S HX 102           
ROCKPORT       MOSUNNY   91  73  55 NW6       30.00F HX  99           
*PORT ARANSAS  MOSUNNY   88  76  67 CALM      30.01F HX  98           
*PORT LAVACA   SUNNY     93  69  46 CALM      30.01F HX  98           
*INGLESIDE     MOSUNNY   95  70  44 CALM      30.00F HX 101           
CORPUS CHRISTI PTSUNNY   94  68  42 VRB6      30.01F HX  98           
CORPUS NAS     MOSUNNY   91  70  49 VRB5      30.01F HX  96           
*ROBSTOWN      MOSUNNY   94  71  48 CALM      30.02F HX 101           
ALICE          MOSUNNY   94  72  48 VRB7      30.01F HX 102           
KINGSVILLE NAS PTSUNNY   93  76  57 E6        30.01F HX 105           
COTULLA        SUNNY     94  68  42 CALM      30.03F HX  98           
*FAITH RANCH     N/A     97  68  38 E12       30.04S HX 101           
LAREDO         MOSUNNY   95  70  44 VRB3      30.04F HX 101           
$$

TXZ248>255-311800-
DEEP SOUTH TEXAS
  
CITY           SKY/WX    TMP DP  RH WIND       PRES   REMARKS
BROWNSVILLE    CLOUDY    89  72  56 NE6       30.02R HX  96           
PORT ISABEL    CLOUDY    87  74  64 E8        30.01S HX  95           
*SOUTH PADRE   CLOUDY    84  77  79 NE3       30.02S HX  94           
HARLINGEN      PTSUNNY   92  72  51 VRB5      30.01S HX  99           
*HEBBRONVILLE    N/A     89  66  45 E6        30.05F HX  91           
MCALLEN        PTSUNNY   90  71  53 CALM      30.02S HX  96           
*WESLACO       PTSUNNY   88  73  60 CALM      30.01S HX  94           
FALFURRIAS     MOSUNNY   89  69  51 E5        30.02S HX  94           
EDINBURG       CLOUDY    88  71  55 CALM      30.03R HX  93           
*ZAPATA        CLOUDY    95  64  35 CALM      30.02S HX  97           
$$

TXZ213>215-236>238-242>244-246-247-251-254-255-311800-
CMAN STATIONS
  
STATION/POSITION TIME  TEMP    WIND        PRES    WAVE
                       AIR SEA DIR/SP/G            HT/PER
                 (UTC) (F)     (DEG/KT/KT) (MB)    (FT/S)
$$

GMZ080-GMZ150>470-311800-
OFFSHORE BUOY REPORTS
  
STATION/POSITION TIME  TEMP    WIND        PRES    WAVE
                       AIR SEA DIR/SP/G            HT/PER
                 (UTC) (F)     (DEG/KT/KT) (MB)    (FT/S)
$$

Return to Home page


Western Regional Climate Center, wrcc@dri.edu